sat.trackr.live / text

‹ back to catalog

STARLINK-4723

NORAD 53797 · 2022-111AA

PAYLOAD ACTIVE UNKNOWN

§ Identity

Operator
Country
US
Launch date
2022-09-11
Launch site
AFETR
Launch vehicle
Mass (kg)
RCS (m²)

Purposes: comms

External: N2YO · Heavens-Above · Gunter

§ Orbital elements

Epoch: 2026-05-25T03:20:59.297280Z

Period
95.44 min
Inclination
53.2146°
Eccentricity
0.0001269
Mean motion
15.08839439 rev/d
Perigee alt
538.9 km
Apogee alt
540.6 km
Semi-major
6,917.9 km
B*
2.7897e-5
RAAN
290.4892°
Arg perigee
82.5251°
Mean anomaly
277.5885°
Rev number
20,522

§ Raw data

STARLINK-47231 53797U 22111AA  26145.13957520  .00000156  00000+0  27897-4 0  99962 53797  53.2146 290.4892 0001269  82.5251 277.5885 15.08839439205222

JSON: /api/v1/satellites/53797 · /tle

For live sub-satellite position, see the globe view (requires WebGL).

§ Visibility from observer

Set your observer location to see the next 7 days of passes ≥ 10°. The values pass through the URL so the page stays shareable.

No JS? Fill the form by hand. The geolocation button needs JavaScript.